Weather History for Council Bluffs, IA

Change the Weather History Date:

Saturday, October 27, 2012

  Actual Average Record
Temperature  
Mean Temperature 37 °F -  
Max Temperature 44 °F 56 °F 86 °F (1999)
Min Temperature 30 °F 39 °F 14 °F (1997)
Degree Days  
Heating Degree Days 28    
Moisture  
Dew Point 24 °F    
Average Humidity 61    
Maximum Humidity 86    
Minimum Humidity 43    
Precipitation  
Precipitation 0.00 in - - ()
Sea Level Pressure  
Sea Level Pressure 30.33 in    
Wind  
Wind Speed 4 mph (SSW)    
Max Wind Speed 9 mph    
Max Gust Speed 15 mph    
Visibility 10 miles    
Events      
Averages and records for this station are not official NWS values.
T = Trace of Precipitation, MM = Missing Value Source: NWS Daily Summary

Daily Weather History Graph

Daily Weather History Graph

Search for Another Location

Airport:

Trip Planner

Search our weather history database for the weather conditions in past years. The results will help you decide how hot, cold, wet, or windy it might be!

Date:

Astronomy

Oct. 27, 2012 Rise Set
Actual Time 7:49 AM CDT 6:24 PM CDT
Civil Twilight 7:20 AM CDT 6:52 PM CDT
Nautical Twilight 6:48 AM CDT 7:24 PM CDT
Astronomical Twilight 6:16 AM CDT 7:56 PM CDT
Moon 5:11 PM CDT 5:44 AM CDT
Length of Visible Light 11h 31m
Length of Day
10h 35m
Waxing Gibbous, 96% of the Moon is Illuminated
Oct 27
Waxing Gibbous
Oct 29
Full
Nov 6
Last Quarter
Nov 13
New
Nov 20
First Quarter

Hourly Weather History & Observations

Time (CDT) Temp. Windchill Dew Point Humidity Pressure Visibility Wind Dir Wind Speed Gust Speed Precip Events Conditions
12:15 AM 35.6 °F 28.6 °F 24.8 °F 65% 30.40 in 10.0 mi NW 9.2 mph - N/A   Unknown
12:35 AM 35.6 °F 28.6 °F 23.0 °F 60% 30.40 in 10.0 mi NW 9.2 mph - N/A   Unknown
12:55 AM 35.6 °F 29.2 °F 23.0 °F 60% 30.40 in 10.0 mi NNW 8.1 mph 15.0 mph N/A   Unknown
1:15 AM 35.6 °F 29.9 °F 23.0 °F 60% 30.40 in 10.0 mi NW 6.9 mph 12.7 mph N/A   Unknown
1:35 AM 35.6 °F 31.7 °F 23.0 °F 60% 30.40 in 10.0 mi NW 4.6 mph - N/A   Unknown
1:55 AM 33.8 °F 29.6 °F 23.0 °F 65% 30.39 in 10.0 mi NW 4.6 mph - N/A   Unknown
2:15 AM 32.0 °F 27.5 °F 23.0 °F 69% 30.38 in 10.0 mi NNW 4.6 mph - N/A   Unknown
2:35 AM 33.8 °F - 23.0 °F 65% 30.38 in 10.0 mi Calm Calm - N/A   Unknown
2:55 AM 33.8 °F - 23.0 °F 65% 30.37 in 10.0 mi Calm Calm - N/A   Unknown
3:35 AM 33.8 °F - 23.0 °F 65% 30.38 in 10.0 mi Calm Calm - N/A   Unknown
3:55 AM 32.0 °F - 23.0 °F 69% 30.36 in 10.0 mi Calm Calm - N/A   Unknown
4:15 AM 32.0 °F - 23.0 °F 69% 30.36 in 10.0 mi Calm Calm - N/A   Unknown
4:35 AM 30.2 °F - 23.0 °F 75% 30.36 in 10.0 mi Calm Calm - N/A   Unknown
4:55 AM 30.2 °F - 23.0 °F 75% 30.36 in 10.0 mi Calm Calm - N/A   Unknown
5:15 AM 32.0 °F - 23.0 °F 69% 30.36 in 10.0 mi Calm Calm - N/A   Unknown
5:35 AM 30.2 °F - 23.0 °F 75% 30.37 in 10.0 mi Calm Calm - N/A   Unknown
5:55 AM 30.2 °F - 23.0 °F 75% 30.37 in 10.0 mi Calm Calm - N/A   Unknown
6:15 AM 30.2 °F - 23.0 °F 75% 30.37 in 10.0 mi Calm Calm - N/A   Unknown
6:55 AM 30.2 °F - 23.0 °F 75% 30.39 in 10.0 mi Calm Calm - N/A   Unknown
7:15 AM 30.2 °F 25.4 °F 23.0 °F 75% 30.39 in 10.0 mi SW 4.6 mph - N/A   Unknown
7:35 AM 30.2 °F 24.3 °F 24.8 °F 80% 30.40 in 10.0 mi SW 5.8 mph - N/A   Unknown
7:55 AM 30.2 °F 25.4 °F 24.8 °F 80% 30.40 in 10.0 mi SW 4.6 mph - N/A   Unknown
8:15 AM 30.2 °F 24.3 °F 24.8 °F 80% 30.40 in 9.0 mi SW 5.8 mph - N/A   Unknown
8:35 AM 30.2 °F - 26.6 °F 86% 30.40 in 10.0 mi Calm Calm - N/A   Unknown
8:55 AM 32.0 °F 27.5 °F 26.6 °F 80% 30.40 in 10.0 mi SW 4.6 mph - N/A   Unknown
9:15 AM 32.0 °F - 26.6 °F 80% 30.40 in 10.0 mi Calm Calm - N/A   Unknown
9:35 AM 33.8 °F - 26.6 °F 75% 30.40 in 10.0 mi Calm Calm - N/A   Unknown
9:55 AM 35.6 °F 32.8 °F 23.0 °F 60% 30.39 in 10.0 mi WSW 3.5 mph - N/A   Clear
10:35 AM 37.4 °F 33.8 °F 23.0 °F 56% 30.38 in 10.0 mi SW 4.6 mph - N/A   Unknown
10:55 AM 37.4 °F 33.8 °F 23.0 °F 56% 30.37 in 10.0 mi WSW 4.6 mph - N/A   Unknown
11:15 AM 37.4 °F 32.1 °F 23.0 °F 56% 30.37 in 10.0 mi South 6.9 mph - N/A   Unknown
11:35 AM 37.4 °F - 21.2 °F 52% 30.37 in 10.0 mi Calm Calm - N/A   Unknown
11:55 AM 39.2 °F - 23.0 °F 52% 30.36 in 10.0 mi Calm Calm - N/A   Unknown
12:15 PM 41.0 °F - 23.0 °F 49% 30.35 in 10.0 mi Calm Calm - N/A   Unknown
12:35 PM 41.0 °F - 23.0 °F 49% 30.34 in 10.0 mi Calm Calm - N/A   Clear
12:55 PM 41.0 °F 39.0 °F 24.8 °F 53% 30.33 in 10.0 mi Variable 3.5 mph - N/A   Clear
1:15 PM 42.8 °F 39.3 °F 24.8 °F 49% 30.32 in 10.0 mi SW 5.8 mph - N/A   Partly Cloudy
1:35 PM 42.8 °F - 23.0 °F 46% 30.31 in 10.0 mi Calm Calm - N/A   Clear
1:55 PM 42.8 °F 40.1 °F 24.8 °F 49% 30.30 in 10.0 mi NW 4.6 mph - N/A   Partly Cloudy
2:15 PM 42.8 °F 41.1 °F 23.0 °F 46% 30.29 in 10.0 mi North 3.5 mph - N/A   Unknown
2:35 PM 44.6 °F 42.2 °F 24.8 °F 46% 30.29 in 10.0 mi Variable 4.6 mph - N/A   Unknown
2:55 PM 42.8 °F 40.1 °F 23.0 °F 46% 30.28 in 10.0 mi SSW 4.6 mph - N/A   Unknown
3:15 PM 42.8 °F 39.3 °F 24.8 °F 49% 30.27 in 10.0 mi SSE 5.8 mph - N/A   Unknown
3:35 PM 42.8 °F - 24.8 °F 49% 30.27 in 10.0 mi Calm Calm - N/A   Unknown
3:55 PM 42.8 °F 41.1 °F 24.8 °F 49% 30.26 in 10.0 mi SSW 3.5 mph - N/A   Unknown
4:15 PM 44.6 °F 40.7 °F 24.8 °F 46% 30.26 in 10.0 mi SE 6.9 mph - N/A   Unknown
4:35 PM 44.6 °F 41.4 °F 23.0 °F 43% 30.26 in 10.0 mi SE 5.8 mph - N/A   Unknown
4:55 PM 42.8 °F 41.1 °F 24.8 °F 49% 30.26 in 10.0 mi SSE 3.5 mph - N/A   Unknown
5:15 PM 42.8 °F 40.1 °F 24.8 °F 49% 30.25 in 10.0 mi SSW 4.6 mph - N/A   Unknown
5:35 PM 42.8 °F 39.3 °F 24.8 °F 49% 30.25 in 10.0 mi SSE 5.8 mph - N/A   Unknown
5:55 PM 42.8 °F 39.3 °F 26.6 °F 53% 30.25 in 10.0 mi SSE 5.8 mph - N/A   Unknown
6:15 PM 41.0 °F 38.0 °F 26.6 °F 57% 30.25 in 10.0 mi SSE 4.6 mph - N/A   Unknown
6:35 PM 41.0 °F 38.0 °F 26.6 °F 57% 30.25 in 10.0 mi SSW 4.6 mph - N/A   Unknown
6:55 PM 41.0 °F - 26.6 °F 57% 30.25 in 10.0 mi Calm Calm - N/A   Unknown
7:15 PM 41.0 °F - 24.8 °F 53% 30.27 in 10.0 mi Calm Calm - N/A   Unknown
7:35 PM 39.2 °F 35.9 °F 26.6 °F 61% 30.27 in 10.0 mi South 4.6 mph - N/A   Unknown
7:55 PM 39.2 °F - 26.6 °F 61% 30.27 in 10.0 mi North - - N/A   Unknown
8:15 PM 39.2 °F 37.0 °F 24.8 °F 56% 30.27 in 10.0 mi South 3.5 mph - N/A   Unknown
8:35 PM 39.2 °F 35.9 °F 26.6 °F 61% 30.27 in 10.0 mi SSE 4.6 mph - N/A   Unknown
8:55 PM 39.2 °F 37.0 °F 26.6 °F 61% 30.27 in 10.0 mi SSE 3.5 mph - N/A   Unknown
9:15 PM 39.2 °F 37.0 °F 24.8 °F 56% 30.28 in 10.0 mi South 3.5 mph - N/A   Unknown
9:55 PM 39.2 °F 35.9 °F 24.8 °F 56% 30.29 in 10.0 mi South 4.6 mph - N/A   Unknown
10:35 PM 37.4 °F 34.9 °F 24.8 °F 60% 30.29 in 10.0 mi SE 3.5 mph - N/A   Unknown
10:55 PM 37.4 °F 33.8 °F 26.6 °F 65% 30.30 in 10.0 mi SSE 4.6 mph - N/A   Unknown
11:15 PM 37.4 °F 33.8 °F 26.6 °F 65% 30.30 in 10.0 mi SSE 4.6 mph - N/A   Unknown
11:35 PM 37.4 °F 33.8 °F 26.6 °F 65% 30.29 in 10.0 mi SE 4.6 mph - N/A   Unknown
11:55 PM 37.4 °F 33.8 °F 28.4 °F 70% 30.30 in 10.0 mi SE 4.6 mph - N/A   Unknown